FW9167 Weather Reports


Display with metric or nautical units.
time (UTC)temp
F
wind
direction
speed
MPH
gust
MPH
rain 1hr
in
rain 24hr
in
rain mn
in
humidity
%
barometer
mb
20260901084603 57 333 0.0 2.0 0.00 0.00 0.00 47 1010.7
20260901083101 58 339 1.0 1.0 0.00 0.00 0.00 46 1010.9
20260901081607 58 308 0.0 0.0 0.00 0.00 0.00 45 1010.8
20260901080104 60 347 0.0 1.0 0.00 0.00 0.00 41 1010.7
20260901074603 62 280 0.0 4.0 0.00 0.00 0.00 40 1010.6
20260901073103 60 274 0.0 1.0 0.00 0.00 0.00 39 1010.5
20260901071605 58 330 0.0 2.0 0.00 0.00 0.00 44 1010.7
20260901070104 59 345 1.0 3.0 0.00 0.00 0.00 45 1010.8
20260901064603 58 342 0.0 2.0 0.00 0.00 0.00 44 1010.9
20260901063108 59 1 0.0 1.0 0.00 0.00 0.00 44 1010.9
20260901061607 62 8 0.0 3.0 0.00 0.00 0.00 37 1011.0
20260901060103 63 8 0.0 1.0 0.00 0.00 0.00 37 1011.0
20260901054603 64 291 1.0 3.0 0.00 0.00 0.00 34 1011.0
20260901053102 66 27 0.0 2.0 0.00 0.00 0.00 32 1011.0
20260901051602 67 20 1.0 4.0 0.00 0.00 0.00 29 1011.0
20260901044603 67 13 0.0 1.0 0.00 0.00 0.00 29 1011.3
20260901043103 69 43 0.0 3.0 0.00 0.00 0.00 27 1011.3
20260901041604 69 3 1.0 6.0 0.00 0.00 0.00 26 1011.2
20260901034602 69 327 2.0 5.0 0.00 0.00 0.00 28 1011.3
20260901033103 69 356 0.0 4.0 0.00 0.00 0.00 28 1011.3
20260901031604 70 360 2.0 6.0 0.00 0.00 0.00 27 1011.2
20260901030105 70 328 5.0 7.0 0.00 0.00 0.00 27 1011.2
20260901024602 69 316 2.0 5.0 0.00 0.00 0.00 29 1011.3
20260901023104 69 316 3.0 5.0 0.00 0.00 0.00 28 1011.2
20260901021604 70 316 4.0 6.0 0.00 0.00 0.00 28 1011.2
20260901014601 76 295 0.0 2.0 0.00 0.00 0.00 30 1011.3
20260901013106 76 262 1.0 3.0 0.00 0.00 0.00 30 1011.5
20260901011603 81 248 2.0 3.0 0.00 0.00 0.00 25 1011.5
20260901004602 87 168 0.0 1.0 0.00 0.00 0.00 16 1011.5
20260901003102 88 91 0.0 3.0 0.00 0.00 0.00 14 1011.6
20260901001602 88 47 0.0 2.0 0.00 0.00 0.00 15 1011.9
20260831234603 87 117 0.0 4.0 0.00 0.00 0.00 15 1012.2
20260831231602 87 113 3.0 4.0 0.00 0.00 0.00 14 1012.7
20260831224602 86 135 3.0 5.0 0.00 0.00 0.00 16 1012.9
20260831223102 86 123 0.0 6.0 0.00 0.00 0.00 15 1013.2
20260831221602 86 150 1.0 4.0 0.00 0.00 0.00 16 1013.4
20260831220106 85 28 0.0 6.0 0.00 0.00 0.00 16 1013.7
20260831214603 84 59 0.0 9.0 0.00 0.00 0.00 16 1014.0
20260831213102 85 129 1.0 8.0 0.00 0.00 0.00 17 1014.1
20260831211603 84 232 2.0 6.0 0.00 0.00 0.00 17 1014.4
20260831210106 84 153 1.0 5.0 0.00 0.00 0.00 17 1014.7
20260831203103 83 105 5.0 7.0 0.00 0.00 0.00 19 1015.0
20260831201602 82 117 1.0 7.0 0.00 0.00 0.00 21 1015.2
20260831194602 80 347 0.0 4.0 0.00 0.00 0.00 21 1015.6
20260831191603 79 92 3.0 5.0 0.00 0.00 0.00 25 1016.1
20260831184603 78 48 0.0 3.0 0.00 0.00 0.00 25 1016.6
20260831183103 75 100 0.0 3.0 0.00 0.00 0.00 26 1016.8
20260831181602 74 122 1.0 2.0 0.00 0.00 0.00 29 1016.8
20260831180107 73 152 0.0 3.0 0.00 0.00 0.00 30 1016.9
20260831174606 72 143 0.0 2.0 0.00 0.00 0.00 32 1017.0
20260831171603 68 49 0.0 5.0 0.00 0.00 0.00 33 1017.3
20260831170105 67 98 0.0 2.0 0.00 0.00 0.00 35 1017.4
20260831164603 66 121 0.0 2.0 0.00 0.00 0.00 38 1017.6
20260831163102 64 156 0.0 3.0 0.00 0.00 0.00 40 1017.8
20260831161604 63 110 0.0 3.0 0.00 0.00 0.00 41 1017.8
20260831154602 61 133 0.0 2.0 0.00 0.00 0.00 43 1018.0
20260831153106 58 94 0.0 1.0 0.00 0.00 0.00 44 1018.1
20260831151602 55 346 0.0 1.0 0.00 0.00 0.00 52 1018.2
20260831150104 55 96 0.0 0.0 0.00 0.00 0.00 52 1018.2
20260831144606 54 130 0.0 0.0 0.00 0.00 0.00 57 1018.3
20260831143105 52 235 0.0 0.0 0.00 0.00 0.00 60 1018.2
20260831141602 48 348 0.0 0.0 0.00 0.00 0.00 68 1018.1
20260831134603 42 34 0.0 1.0 0.00 0.00 0.00 75 1017.9
20260831131603 41 318 0.0 0.0 0.00 0.00 0.00 71 1017.9
20260831124603 45 281 0.0 1.0 0.00 0.00 0.00 66 1017.7
20260831123103 44 286 0.0 0.0 0.00 0.00 0.00 66 1017.6
20260831121602 43 328 0.0 2.0 0.00 0.00 0.00 70 1017.4
20260831114602 43 335 0.0 1.0 0.00 0.00 0.00 69 1017.7
20260831113102 43 337 0.0 1.0 0.00 0.00 0.00 68 1017.4
20260831111601 46 271 0.0 0.0 0.00 0.00 0.00 60 1017.4
20260831104603 44 6 2.0 2.0 0.00 0.00 0.00 65 1017.3
20260831103102 46 324 0.0 1.0 0.00 0.00 0.00 62 1017.3
20260831101602 47 349 0.0 1.0 0.00 0.00 0.00 61 1017.2
20260831100103 48 326 0.0 1.0 0.00 0.00 0.00 57 1017.3
20260831094602 47 287 0.0 1.0 0.00 0.00 0.00 58 1017.4
20260831093102 46 38 0.0 2.0 0.00 0.00 0.00 61 1017.4
20260831091603 48 1 0.0 1.0 0.00 0.00 0.00 55 1017.3